This is the latest recevied weather packets stored in our database for station/object N4AN. If no packets are shown the sender has not sent any weather packets the latest 10 day(s).
| Time | Temp. | Humidity | Pressure | Rain* | Wind** | Luminosity | Snow |
|---|---|---|---|---|---|---|---|
| 1788128897 | 27.78° C | 79% | 1010.6 hPa | 0 mm | - | - | - |
| 1788128593 | 28.89° C | 75% | 1010.6 hPa | 0 mm | - | - | - |
| 1788128291 | 29.44° C | 75% | 1010.6 hPa | 0 mm | - | - | - |
| 1788127991 | 30.56° C | 74% | 1010.5 hPa | 0 mm | - | - | - |
| 1788127691 | 31.11° C | 74% | 1010.6 hPa | 0 mm | - | - | - |
| 1788127391 | 30.56° C | 76% | 1010.6 hPa | 0 mm | - | - | - |
| 1788127090 | 30.56° C | 77% | 1010.5 hPa | 0 mm | - | - | - |
| 1788126790 | 28.89° C | 80% | 1010.4 hPa | 0 mm | - | - | - |
| 1788126490 | 28.33° C | 80% | 1010.3 hPa | 0 mm | - | - | - |
| 1788126189 | 28.33° C | 79% | 1010.2 hPa | 0 mm | - | - | - |
| 1788125889 | 28.89° C | 79% | 1010.1 hPa | 0 mm | - | - | - |
| 1788125589 | 28.89° C | 79% | 1010.2 hPa | 0 mm | - | - | - |
| 1788125289 | 28.89° C | 77% | 1010 hPa | 0 mm | - | - | - |
| 1788124986 | 28.89° C | 76% | 1010 hPa | 0 mm | - | - | - |
| 1788124686 | 28.89° C | 77% | 1009.9 hPa | 0 mm | - | - | - |
| 1788124384 | 28.89° C | 77% | 1010 hPa | 0 mm | - | - | - |
| 1788124084 | 28.89° C | 78% | 1009.9 hPa | 1.02 mm | - | - | - |
| 1788123783 | 29.44° C | 77% | 1010 hPa | 1.52 mm | - | - | - |
| 1788123482 | 28.89° C | 74% | 1010.3 hPa | 3.05 mm | - | - | - |
| 1788123182 | 28.89° C | 72% | 1010 hPa | 42.16 mm | - | - | - |
| 1788122885 | 31.11° C | 74% | 1009.7 hPa | 0 mm | - | - | - |
| 1788122581 | 32.22° C | 72% | 1009.8 hPa | 0 mm | - | - | - |
| 1788122281 | 32.22° C | 72% | 1009.9 hPa | 0 mm | - | - | - |
| 1788122113 | 32.22° C | 75% | 1010 hPa | 0 mm | - | - | - |
| 1788121981 | 32.22° C | 75% | 1010 hPa | 0 mm | - | - | - |
* Rain latest hour (hover to see other rain measurements)
** Current wind speed in m/s (hover to see current wind gust speed)